| time (UTC) | temp C | wind direction | speed KPH | gust KPH | rain 1hr cm | rain 24hr cm | rain mn cm | humidity % | barometer mb |
| 20260508055039 | 15 | 63 | 0.0 | 0.0 | 0.00 | 0.00 | 0.00 | ||
| 20260508054538 | 15 | 63 | 0.0 | 0.0 | 0.00 | 0.00 | 0.00 | ||
| 20260508054038 | 15 | 63 | 0.0 | 0.0 | 0.00 | 0.00 | 0.00 | ||
| 20260508053537 | 14 | 63 | 0.0 | 0.0 | 0.00 | 0.00 | 0.00 | ||
| 20260508053035 | 11 | 63 | 0.0 | 0.0 | 0.00 | 0.00 | 0.00 | ||
| 20260508052536 | 14 | 63 | 0.0 | 0.0 | 0.00 | 0.00 | 0.00 | ||
| 20260508052033 | 14 | 63 | 0.0 | 0.0 | 0.00 | 0.00 | 0.00 | ||
| 20260508051534 | 14 | 66 | 4.8 | 3.2 | 0.00 | 0.00 | 0.00 | ||
| 20260508051034 | 15 | 76 | 4.8 | 4.8 | 0.00 | 0.00 | 0.00 | ||
| 20260508050532 | 14 | 80 | 6.4 | 8.0 | 0.00 | 0.00 | 0.00 | ||
| 20260508050032 | 14 | 94 | 6.4 | 6.4 | 0.00 | 0.00 | 0.00 | ||
| 20260508045533 | 14 | 89 | 6.4 | 3.2 | 0.00 | 0.00 | 0.00 | ||
| 20260508045030 | 14 | 94 | 4.8 | 8.0 | 0.00 | 0.00 | 0.00 | ||
| 20260508044531 | 14 | 98 | 6.4 | 8.0 | 0.00 | 0.00 | 0.00 | ||
| 20260508044031 | 15 | 105 | 6.4 | 6.4 | 0.00 | 0.00 | 0.00 | ||
| 20260508043611 | 15 | 114 | 8.0 | 6.4 | 0.00 | 0.00 | 0.00 | ||
| 20260508043529 | 15 | 114 | 8.0 | 6.4 | 0.00 | 0.00 | 0.00 | ||
| 20260508043029 | 13 | 107 | 0.0 | 0.0 | 0.00 | 0.00 | 0.00 | ||
| 20260508042530 | 12 | 107 | 0.0 | 0.0 | 0.00 | 0.00 | 0.00 | ||
| 20260508042059 | 12 | 107 | 0.0 | 0.0 | 0.00 | 0.00 | 0.00 | ||
| 20260508042027 | 12 | 107 | 0.0 | 0.0 | 0.00 | 0.00 | 0.00 | ||
| 20260508041651 | 12 | 107 | 0.0 | 0.0 | 0.00 | 0.00 | 0.00 | ||
| 20260508041528 | 12 | 107 | 0.0 | 0.0 | 0.00 | 0.00 | 0.00 | ||
| 20260508041028 | 13 | 107 | 0.0 | 0.0 | 0.00 | 0.00 | 0.00 | ||
| 20260508040526 | 12 | 107 | 0.0 | 0.0 | 0.00 | 0.00 | 0.00 | ||
| 20260508040026 | 14 | 107 | 0.0 | 0.0 | 0.00 | 0.00 | 0.00 | ||
| 20260508035527 | 14 | 107 | 0.0 | 0.0 | 0.00 | 0.00 | 0.00 | ||
| 20260508035024 | 14 | 107 | 0.0 | 0.0 | 0.00 | 0.00 | 0.00 | ||
| 20260508034525 | 14 | 93 | 0.0 | 4.8 | 0.00 | 0.00 | 0.00 | ||
| 20260508034025 | 14 | 49 | 0.0 | 0.0 | 0.00 | 0.00 | 0.00 | ||
| 20260508033523 | 14 | 49 | 0.0 | 0.0 | 0.00 | 0.00 | 0.00 | ||
| 20260508033023 | 14 | 49 | 0.0 | 0.0 | 0.00 | 0.00 | 0.00 | ||
| 20260508032524 | 14 | 121 | 4.8 | 4.8 | 0.00 | 0.00 | 0.00 | ||
| 20260508032021 | 13 | 87 | 8.0 | 6.4 | 0.00 | 0.00 | 0.00 | ||
| 20260508031522 | 14 | 104 | 6.4 | 6.4 | 0.00 | 0.00 | 0.00 | ||
| 20260508031022 | 14 | 91 | 9.7 | 6.4 | 0.00 | 0.00 | 0.00 | ||
| 20260508030520 | 13 | 83 | 9.7 | 11.3 | 0.00 | 0.00 | 0.00 | ||
| 20260508030021 | 13 | 90 | 9.7 | 8.0 | 0.00 | 0.00 | 0.00 | ||
| 20260508025521 | 14 | 93 | 8.0 | 8.0 | 0.00 | 0.00 | 0.00 | ||
| 20260508025019 | 13 | 75 | 6.4 | 6.4 | 0.00 | 0.00 | 0.00 | ||
| 20260508024519 | 14 | 103 | 8.0 | 8.0 | 0.00 | 0.00 | 0.00 | ||
| 20260508024019 | 14 | 107 | 6.4 | 6.4 | 0.00 | 0.00 | 0.00 | ||
| 20260508023516 | 13 | 120 | 4.8 | 4.8 | 0.00 | 0.00 | 0.00 | ||
| 20260508022517 | 11 | 79 | 8.0 | 4.8 | 0.00 | 0.00 | 0.00 | ||
| 20260508022014 | 11 | 76 | 6.4 | 8.0 | 0.00 | 0.00 | 0.00 | ||
| 20260508021515 | 11 | 104 | 8.0 | 8.0 | 0.00 | 0.00 | 0.00 | ||
| 20260508021015 | 11 | 101 | 6.4 | 9.7 | 0.00 | 0.00 | 0.00 | ||
| 20260508020513 | 11 | 125 | 8.0 | 6.4 | 0.00 | 0.00 | 0.00 | ||
| 20260508020013 | 11 | 103 | 6.4 | 6.4 | 0.00 | 0.00 | 0.00 | ||
| 20260508015514 | 13 | 94 | 9.7 | 8.0 | 0.00 | 0.00 | 0.00 | ||
| 20260508015010 | 11 | 136 | 8.0 | 8.0 | 0.00 | 0.00 | 0.00 | ||
| 20260508014511 | 12 | 136 | 8.0 | 4.8 | 0.00 | 0.00 | 0.00 | ||
| 20260508014012 | 12 | 93 | 6.4 | 8.0 | 0.00 | 0.00 | 0.00 | ||
| 20260508013509 | 11 | 94 | 8.0 | 9.7 | 0.00 | 0.00 | 0.00 | ||
| 20260508013010 | 12 | 114 | 9.7 | 9.7 | 0.00 | 0.00 | 0.00 | ||
| 20260508012510 | 11 | 104 | 11.3 | 11.3 | 0.00 | 0.00 | 0.00 | ||
| 20260508012008 | 12 | 117 | 8.0 | 6.4 | 0.00 | 0.00 | 0.00 | ||
| 20260508011508 | 12 | 101 | 8.0 | 11.3 | 0.00 | 0.00 | 0.00 | ||
| 20260508011009 | 10 | 113 | 9.7 | 11.3 | 0.00 | 0.00 | 0.00 | ||
| 20260508010506 | 10 | 141 | 12.9 | 14.5 | 0.00 | 0.00 | 0.00 | ||
| 20260508010007 | 11 | 114 | 11.3 | 9.7 | 0.00 | 0.00 | 0.00 | ||
| 20260508005507 | 13 | 135 | 6.4 | 9.7 | 0.00 | 0.00 | 0.00 | ||
| 20260508005005 | 14 | 114 | 9.7 | 6.4 | 0.00 | 0.00 | 0.00 | ||
| 20260508004505 | 11 | 93 | 8.0 | 6.4 | 0.00 | 0.00 | 0.00 | ||
| 20260508004006 | 13 | 124 | 9.7 | 4.8 | 0.00 | 0.00 | 0.00 | ||
| 20260508003503 | 13 | 139 | 9.7 | 12.9 | 0.00 | 0.00 | 0.00 | ||
| 20260508003005 | 14 | 107 | 9.7 | 11.3 | 0.00 | 0.00 | 0.00 | ||
| 20260508002505 | 14 | 135 | 9.7 | 11.3 | 0.00 | 0.00 | 0.00 | ||
| 20260508002002 | 14 | 115 | 11.3 | 11.3 | 0.00 | 0.00 | 0.00 | ||
| 20260508001503 | 11 | 89 | 8.0 | 9.7 | 0.00 | 0.00 | 0.00 | ||
| 20260508001003 | 12 | 122 | 8.0 | 8.0 | 0.00 | 0.00 | 0.00 | ||
| 20260508000501 | 13 | 113 | 9.7 | 11.3 | 0.00 | 0.00 | 0.00 | ||
| 20260508000001 | 11 | 100 | 11.3 | 9.7 | 0.00 | 0.00 | 0.00 | ||
| 20260507235502 | 11 | 105 | 8.0 | 4.8 | 0.00 | 0.00 | 0.00 | ||
| 20260507235000 | 12 | 122 | 11.3 | 11.3 | 0.00 | 0.00 | 0.00 | ||
| 20260507234500 | 14 | 138 | 9.7 | 8.0 | 0.00 | 0.00 | 0.00 | ||
| 20260507234001 | 14 | 135 | 12.9 | 9.7 | 0.00 | 0.00 | 0.00 | ||
| 20260507233458 | 12 | 101 | 11.3 | 12.9 | 0.00 | 0.00 | 0.00 | ||
| 20260507232959 | 12 | 142 | 8.0 | 6.4 | 0.00 | 0.00 | 0.00 | ||
| 20260507232459 | 12 | 143 | 8.0 | 9.7 | 0.00 | 0.00 | 0.00 | ||
| 20260507231957 | 13 | 105 | 8.0 | 6.4 | 0.00 | 0.00 | 0.00 | ||
| 20260507231458 | 12 | 132 | 9.7 | 9.7 | 0.00 | 0.00 | 0.00 | ||
| 20260507230958 | 13 | 124 | 9.7 | 11.3 | 0.00 | 0.00 | 0.00 | ||
| 20260507230456 | 12 | 103 | 9.7 | 6.4 | 0.00 | 0.00 | 0.00 | ||
| 20260507225956 | 15 | 114 | 12.9 | 11.3 | 0.00 | 0.00 | 0.00 | ||
| 20260507225457 | 12 | 108 | 11.3 | 11.3 | 0.00 | 0.00 | 0.00 | ||
| 20260507224455 | 12 | 107 | 11.3 | 8.0 | 0.00 | 0.00 | 0.00 | ||
| 20260507223956 | 14 | 77 | 12.9 | 14.5 | 0.00 | 0.00 | 0.00 | ||
| 20260507223453 | 15 | 70 | 14.5 | 11.3 | 0.00 | 0.00 | 0.00 | ||
| 20260507222954 | 15 | 87 | 12.9 | 14.5 | 0.00 | 0.00 | 0.00 | ||
| 20260507222455 | 15 | 98 | 11.3 | 17.7 | 0.00 | 0.00 | 0.00 | ||
| 20260507221952 | 15 | 132 | 14.5 | 14.5 | 0.00 | 0.00 | 0.00 | ||
| 20260507221453 | 15 | 104 | 14.5 | 11.3 | 0.00 | 0.00 | 0.00 | ||
| 20260507220953 | 15 | 101 | 14.5 | 12.9 | 0.00 | 0.00 | 0.00 | ||
| 20260507220451 | 15 | 113 | 14.5 | 14.5 | 0.00 | 0.00 | 0.00 | ||
| 20260507215951 | 15 | 115 | 12.9 | 14.5 | 0.00 | 0.00 | 0.00 | ||
| 20260507215452 | 16 | 93 | 14.5 | 14.5 | 0.00 | 0.00 | 0.00 | ||
| 20260507214949 | 16 | 100 | 16.1 | 14.5 | 0.00 | 0.00 | 0.00 | ||
| 20260507214450 | 16 | 91 | 16.1 | 19.3 | 0.00 | 0.00 | 0.00 | ||
| 20260507213950 | 15 | 90 | 12.9 | 14.5 | 0.00 | 0.00 | 0.00 | ||
| 20260507213448 | 16 | 117 | 19.3 | 17.7 | 0.00 | 0.00 | 0.00 | ||
| 20260507212948 | 16 | 87 | 17.7 | 14.5 | 0.00 | 0.00 | 0.00 | ||
| 20260507212449 | 16 | 96 | 16.1 | 20.9 | 0.00 | 0.00 | 0.00 | ||
| 20260507211946 | 15 | 86 | 20.9 | 22.5 | 0.00 | 0.00 | 0.00 | ||
| 20260507211447 | 16 | 107 | 20.9 | 22.5 | 0.00 | 0.00 | 0.00 | ||
| 20260507210948 | 15 | 105 | 17.7 | 16.1 | 0.00 | 0.00 | 0.00 | ||
| 20260507210445 | 16 | 83 | 14.5 | 16.1 | 0.00 | 0.00 | 0.00 | ||
| 20260507205946 | 16 | 84 | 14.5 | 12.9 | 0.00 | 0.00 | 0.00 | ||
| 20260507205446 | 16 | 75 | 12.9 | 11.3 | 0.00 | 0.00 | 0.00 | ||
| 20260507204944 | 16 | 87 | 11.3 | 12.9 | 0.00 | 0.00 | 0.00 | ||
| 20260507204444 | 16 | 76 | 12.9 | 17.7 | 0.00 | 0.00 | 0.00 | ||
| 20260507203945 | 15 | 93 | 14.5 | 16.1 | 0.00 | 0.00 | 0.00 | ||
| 20260507203442 | 16 | 117 | 14.5 | 14.5 | 0.00 | 0.00 | 0.00 | ||
| 20260507202943 | 16 | 87 | 14.5 | 14.5 | 0.00 | 0.00 | 0.00 | ||
| 20260507202443 | 16 | 100 | 17.7 | 16.1 | 0.00 | 0.00 | 0.00 | ||
| 20260507201941 | 17 | 121 | 17.7 | 25.7 | 0.00 | 0.00 | 0.00 | ||
| 20260507201442 | 17 | 75 | 16.1 | 16.1 | 0.00 | 0.00 | 0.00 | ||
| 20260507200942 | 17 | 77 | 17.7 | 17.7 | 0.00 | 0.00 | 0.00 | ||
| 20260507200440 | 17 | 90 | 11.3 | 9.7 | 0.00 | 0.00 | 0.00 | ||
| 20260507195940 | 17 | 66 | 16.1 | 19.3 | 0.00 | 0.00 | 0.00 | ||
| 20260507195441 | 17 | 60 | 14.5 | 11.3 | 0.00 | 0.00 | 0.00 | ||
| 20260507194938 | 17 | 52 | 11.3 | 14.5 | 0.00 | 0.00 | 0.00 | ||
| 20260507194439 | 17 | 96 | 14.5 | 14.5 | 0.00 | 0.00 | 0.00 | ||
| 20260507193939 | 17 | 63 | 16.1 | 12.9 | 0.00 | 0.00 | 0.00 | ||
| 20260507193437 | 17 | 75 | 17.7 | 12.9 | 0.00 | 0.00 | 0.00 | ||
| 20260507192937 | 17 | 104 | 12.9 | 11.3 | 0.00 | 0.00 | 0.00 | ||
| 20260507192438 | 17 | 76 | 11.3 | 12.9 | 0.00 | 0.00 | 0.00 | ||
| 20260507191935 | 17 | 70 | 16.1 | 12.9 | 0.00 | 0.00 | 0.00 | ||
| 20260507191436 | 18 | 41 | 16.1 | 12.9 | 0.00 | 0.00 | 0.00 | ||
| 20260507190936 | 18 | 87 | 14.5 | 14.5 | 0.00 | 0.00 | 0.00 | ||
| 20260507190434 | 17 | 66 | 11.3 | 12.9 | 0.00 | 0.00 | 0.00 | ||
| 20260507185934 | 17 | 135 | 17.7 | 20.9 | 0.00 | 0.00 | 0.00 | ||
| 20260507185435 | 17 | 128 | 14.5 | 12.9 | 0.00 | 0.00 | 0.00 | ||
| 20260507184933 | 18 | 73 | 16.1 | 17.7 | 0.00 | 0.00 | 0.00 | ||
| 20260507184433 | 17 | 59 | 16.1 | 11.3 | 0.00 | 0.00 | 0.00 | ||
| 20260507183934 | 17 | 42 | 16.1 | 16.1 | 0.00 | 0.00 | 0.00 | ||
| 20260507183431 | 17 | 38 | 14.5 | 17.7 | 0.00 | 0.00 | 0.00 | ||
| 20260507182932 | 17 | 39 | 14.5 | 19.3 | 0.00 | 0.00 | 0.00 | ||
| 20260507182432 | 17 | 56 | 19.3 | 14.5 | 0.00 | 0.00 | 0.00 | ||
| 20260507181929 | 17 | 48 | 14.5 | 17.7 | 0.00 | 0.00 | 0.00 | ||
| 20260507181430 | 17 | 100 | 14.5 | 16.1 | 0.00 | 0.00 | 0.00 | ||
| 20260507180930 | 17 | 82 | 22.5 | 17.7 | 0.00 | 0.00 | 0.00 | ||
| 20260507180428 | 17 | 62 | 20.9 | 12.9 | 0.00 | 0.00 | 0.00 | ||
| 20260507175928 | 17 | 55 | 19.3 | 14.5 | 0.00 | 0.00 | 0.00 | ||
| 20260507175429 | 17 | 21 | 17.7 | 16.1 | 0.00 | 0.00 | 0.00 | ||
| 20260507174926 | 17 | 25 | 16.1 | 16.1 | 0.00 | 0.00 | 0.00 | ||
| 20260507174427 | 17 | 23 | 19.3 | 17.7 | 0.00 | 0.00 | 0.00 | ||
| 20260507173927 | 17 | 49 | 17.7 | 22.5 | 0.00 | 0.00 | 0.00 | ||
| 20260507173425 | 18 | 35 | 14.5 | 19.3 | 0.00 | 0.00 | 0.00 | ||
| 20260507172925 | 17 | 58 | 20.9 | 17.7 | 0.00 | 0.00 | 0.00 | ||
| 20260507172426 | 18 | 28 | 16.1 | 25.7 | 0.00 | 0.00 | 0.00 | ||
| 20260507171923 | 17 | 55 | 16.1 | 14.5 | 0.00 | 0.00 | 0.00 | ||
| 20260507171424 | 17 | 30 | 14.5 | 19.3 | 0.00 | 0.00 | 0.00 | ||
| 20260507170924 | 16 | 1 | 12.9 | 22.5 | 0.00 | 0.00 | 0.00 | ||
| 20260507170422 | 17 | 23 | 17.7 | 16.1 | 0.00 | 0.00 | 0.00 | ||
| 20260507165922 | 17 | 8 | 14.5 | 20.9 | 0.00 | 0.00 | 0.00 | ||
| 20260507165423 | 16 | 32 | 11.3 | 14.5 | 0.00 | 0.00 | 0.00 | ||
| 20260507164920 | 16 | 37 | 17.7 | 16.1 | 0.00 | 0.00 | 0.00 | ||
| 20260507164421 | 16 | 55 | 12.9 | 17.7 | 0.00 | 0.00 | 0.00 | ||
| 20260507164017 | 16 | 11 | 16.1 | 12.9 | 0.00 | 0.00 | 0.00 | ||
| 20260507163921 | 16 | 11 | 16.1 | 12.9 | 0.00 | 0.00 | 0.00 | ||
| 20260507163419 | 15 | 32 | 17.7 | 17.7 | 0.00 | 0.00 | 0.00 | ||
| 20260507162919 | 16 | 45 | 12.9 | 16.1 | 0.00 | 0.00 | 0.00 | ||
| 20260507162420 | 16 | 359 | 12.9 | 12.9 | 0.00 | 0.00 | 0.00 | ||
| 20260507161917 | 15 | 58 | 16.1 | 12.9 | 0.00 | 0.00 | 0.00 | ||
| 20260507161418 | 15 | 41 | 16.1 | 16.1 | 0.00 | 0.00 | 0.00 | ||
| 20260507160919 | 15 | 18 | 12.9 | 17.7 | 0.00 | 0.00 | 0.00 | ||
| 20260507160416 | 14 | 8 | 19.3 | 14.5 | 0.00 | 0.00 | 0.00 | ||
| 20260507155917 | 14 | 7 | 16.1 | 16.1 | 0.00 | 0.00 | 0.00 | ||
| 20260507155417 | 14 | 13 | 16.1 | 17.7 | 0.00 | 0.00 | 0.00 | ||
| 20260507154915 | 13 | 3 | 16.1 | 17.7 | 0.00 | 0.00 | 0.00 | ||
| 20260507154415 | 14 | 32 | 20.9 | 16.1 | 0.00 | 0.00 | 0.00 | ||
| 20260507153916 | 14 | 31 | 16.1 | 20.9 | 0.00 | 0.00 | 0.00 | ||
| 20260507153414 | 13 | 15 | 14.5 | 17.7 | 0.00 | 0.00 | 0.00 | ||
| 20260507152914 | 13 | 20 | 16.1 | 19.3 | 0.00 | 0.00 | 0.00 | ||
| 20260507152415 | 13 | 354 | 16.1 | 22.5 | 0.00 | 0.00 | 0.00 | ||
| 20260507151912 | 13 | 14 | 20.9 | 22.5 | 0.00 | 0.00 | 0.00 | ||
| 20260507151413 | 13 | 4 | 17.7 | 16.1 | 0.00 | 0.00 | 0.00 | ||
| 20260507150913 | 12 | 8 | 19.3 | 22.5 | 0.00 | 0.00 | 0.00 | ||
| 20260507150411 | 12 | 13 | 17.7 | 16.1 | 0.00 | 0.00 | 0.00 | ||
| 20260507145911 | 12 | 3 | 17.7 | 14.5 | 0.00 | 0.00 | 0.00 | ||
| 20260507145412 | 12 | 7 | 16.1 | 16.1 | 0.00 | 0.00 | 0.00 | ||
| 20260507144910 | 12 | 6 | 17.7 | 14.5 | 0.00 | 0.00 | 0.00 | ||
| 20260507144410 | 13 | 346 | 16.1 | 20.9 | 0.00 | 0.00 | 0.00 | ||
| 20260507143911 | 12 | 28 | 17.7 | 17.7 | 0.00 | 0.00 | 0.00 | ||
| 20260507143409 | 12 | 17 | 14.5 | 22.5 | 0.00 | 0.00 | 0.00 | ||
| 20260507142909 | 12 | 51 | 14.5 | 9.7 | 0.00 | 0.00 | 0.00 | ||
| 20260507142410 | 12 | 20 | 16.1 | 12.9 | 0.00 | 0.00 | 0.00 | ||
| 20260507141908 | 12 | 6 | 17.7 | 17.7 | 0.00 | 0.00 | 0.00 | ||
| 20260507141408 | 12 | 41 | 14.5 | 16.1 | 0.00 | 0.00 | 0.00 | ||
| 20260507140909 | 12 | 23 | 14.5 | 14.5 | 0.00 | 0.00 | 0.00 | ||
| 20260507140407 | 12 | 14 | 17.7 | 19.3 | 0.00 | 0.00 | 0.00 | ||
| 20260507135907 | 12 | 13 | 17.7 | 17.7 | 0.00 | 0.00 | 0.00 | ||
| 20260507135408 | 12 | 25 | 16.1 | 14.5 | 0.00 | 0.00 | 0.00 | ||
| 20260507134906 | 12 | 354 | 17.7 | 16.1 | 0.00 | 0.00 | 0.00 | ||
| 20260507134406 | 12 | 21 | 16.1 | 17.7 | 0.00 | 0.00 | 0.00 | ||
| 20260507133907 | 12 | 28 | 16.1 | 19.3 | 0.00 | 0.00 | 0.00 | ||
| 20260507133405 | 12 | 34 | 14.5 | 14.5 | 0.00 | 0.00 | 0.00 | ||
| 20260507132905 | 12 | 8 | 19.3 | 22.5 | 0.00 | 0.00 | 0.00 | ||
| 20260507132406 | 12 | 31 | 19.3 | 19.3 | 0.00 | 0.00 | 0.00 | ||
| 20260507131905 | 12 | 3 | 17.7 | 12.9 | 0.00 | 0.00 | 0.00 | ||
| 20260507131404 | 12 | 1 | 16.1 | 16.1 | 0.00 | 0.00 | 0.00 | ||
| 20260507130905 | 11 | 23 | 16.1 | 16.1 | 0.00 | 0.00 | 0.00 | ||
| 20260507130402 | 12 | 17 | 17.7 | 20.9 | 0.00 | 0.00 | 0.00 | ||
| 20260507125903 | 12 | 349 | 16.1 | 17.7 | 0.00 | 0.00 | 0.00 | ||
| 20260507125403 | 12 | 18 | 14.5 | 12.9 | 0.00 | 0.00 | 0.00 | ||
| 20260507124901 | 12 | 13 | 14.5 | 12.9 | 0.00 | 0.00 | 0.00 | ||
| 20260507124402 | 12 | 23 | 17.7 | 24.1 | 0.00 | 0.00 | 0.00 | ||
| 20260507123902 | 11 | 17 | 14.5 | 16.1 | 0.00 | 0.00 | 0.00 | ||
| 20260507123400 | 11 | 1 | 17.7 | 16.1 | 0.00 | 0.00 | 0.00 | ||
| 20260507122900 | 11 | 25 | 12.9 | 16.1 | 0.00 | 0.00 | 0.00 | ||
| 20260507122401 | 11 | 24 | 12.9 | 12.9 | 0.00 | 0.00 | 0.00 | ||
| 20260507121859 | 11 | 349 | 12.9 | 22.5 | 0.00 | 0.00 | 0.00 | ||
| 20260507121400 | 11 | 342 | 14.5 | 14.5 | 0.00 | 0.00 | 0.00 | ||
| 20260507120900 | 11 | 7 | 14.5 | 16.1 | 0.00 | 0.00 | 0.00 | ||
| 20260507120357 | 11 | 32 | 12.9 | 9.7 | 0.00 | 0.00 | 0.00 | ||
| 20260507115858 | 11 | 359 | 19.3 | 12.9 | 0.00 | 0.00 | 0.00 | ||
| 20260507115358 | 12 | 7 | 20.9 | 14.5 | 0.00 | 0.00 | 0.00 | ||
| 20260507114856 | 11 | 4 | 19.3 | 16.1 | 0.00 | 0.00 | 0.00 | ||
| 20260507114356 | 12 | 25 | 16.1 | 14.5 | 0.00 | 0.00 | 0.00 | ||
| 20260507113857 | 12 | 10 | 17.7 | 17.7 | 0.00 | 0.00 | 0.00 | ||
| 20260507113354 | 12 | 353 | 16.1 | 16.1 | 0.00 | 0.00 | 0.00 | ||
| 20260507112855 | 12 | 13 | 14.5 | 11.3 | 0.00 | 0.00 | 0.00 | ||
| 20260507112355 | 12 | 357 | 14.5 | 14.5 | 0.00 | 0.00 | 0.00 | ||
| 20260507111853 | 12 | 4 | 14.5 | 17.7 | 0.00 | 0.00 | 0.00 | ||
| 20260507111424 | 12 | 13 | 17.7 | 14.5 | 0.00 | 0.00 | 0.00 | ||
| 20260507111353 | 12 | 13 | 17.7 | 14.5 | 0.00 | 0.00 | 0.00 | ||
| 20260507110926 | 12 | 8 | 19.3 | 17.7 | 0.00 | 0.00 | 0.00 | ||
| 20260507110854 | 12 | 8 | 19.3 | 17.7 | 0.00 | 0.00 | 0.00 | ||
| 20260507105852 | 12 | 4 | 14.5 | 12.9 | 0.00 | 0.00 | 0.00 | ||
| 20260507105352 | 12 | 359 | 17.7 | 16.1 | 0.00 | 0.00 | 0.00 | ||
| 20260507104850 | 13 | 353 | 16.1 | 14.5 | 0.00 | 0.00 | 0.00 | ||
| 20260507104350 | 12 | 35 | 16.1 | 14.5 | 0.00 | 0.00 | 0.00 | ||
| 20260507103850 | 12 | 18 | 22.5 | 20.9 | 0.00 | 0.00 | 0.00 | ||
| 20260507103348 | 12 | 0 | 14.5 | 22.5 | 0.00 | 0.00 | 0.00 | ||
| 20260507102848 | 12 | 18 | 20.9 | 19.3 | 0.00 | 0.00 | 0.00 | ||
| 20260507102348 | 12 | 13 | 17.7 | 14.5 | 0.00 | 0.00 | 0.00 | ||
| 20260507101846 | 13 | 1 | 16.1 | 16.1 | 0.00 | 0.00 | 0.00 | ||
| 20260507100847 | 12 | 0 | 20.9 | 19.3 | 0.00 | 0.00 | 0.00 | ||
| 20260507100344 | 13 | 18 | 12.9 | 11.3 | 0.00 | 0.00 | 0.00 | ||
| 20260507095844 | 13 | 349 | 17.7 | 14.5 | 0.00 | 0.00 | 0.00 | ||
| 20260507095345 | 13 | 13 | 12.9 | 12.9 | 0.00 | 0.00 | 0.00 | ||
| 20260507094842 | 13 | 14 | 16.1 | 11.3 | 0.00 | 0.00 | 0.00 | ||
| 20260507094343 | 13 | 357 | 16.1 | 17.7 | 0.00 | 0.00 | 0.00 | ||
| 20260507093843 | 13 | 1 | 14.5 | 14.5 | 0.00 | 0.00 | 0.00 | ||
| 20260507093340 | 13 | 3 | 16.1 | 14.5 | 0.00 | 0.00 | 0.00 | ||
| 20260507092841 | 13 | 21 | 14.5 | 16.1 | 0.00 | 0.00 | 0.00 | ||
| 20260507092341 | 13 | 31 | 14.5 | 12.9 | 0.00 | 0.00 | 0.00 | ||
| 20260507091839 | 13 | 21 | 14.5 | 17.7 | 0.00 | 0.00 | 0.00 | ||
| 20260507091339 | 13 | 7 | 19.3 | 20.9 | 0.00 | 0.00 | 0.00 | ||
| 20260507090839 | 13 | 14 | 14.5 | 16.1 | 0.00 | 0.00 | 0.00 | ||
| 20260507090337 | 13 | 30 | 16.1 | 14.5 | 0.00 | 0.00 | 0.00 | ||
| 20260507085837 | 13 | 352 | 16.1 | 14.5 | 0.00 | 0.00 | 0.00 | ||
| 20260507085338 | 13 | 25 | 14.5 | 19.3 | 0.00 | 0.00 | 0.00 | ||
| 20260507084835 | 13 | 6 | 16.1 | 14.5 | 0.00 | 0.00 | 0.00 | ||
| 20260507084335 | 13 | 6 | 14.5 | 14.5 | 0.00 | 0.00 | 0.00 | ||
| 20260507083835 | 13 | 3 | 16.1 | 16.1 | 0.00 | 0.00 | 0.00 | ||
| 20260507083333 | 13 | 3 | 17.7 | 19.3 | 0.00 | 0.00 | 0.00 | ||
| 20260507082833 | 13 | 11 | 12.9 | 12.9 | 0.00 | 0.00 | 0.00 | ||
| 20260507082334 | 13 | 8 | 12.9 | 9.7 | 0.00 | 0.00 | 0.00 | ||
| 20260507081831 | 13 | 14 | 11.3 | 11.3 | 0.00 | 0.00 | 0.00 | ||
| 20260507081332 | 13 | 18 | 11.3 | 12.9 | 0.00 | 0.00 | 0.00 | ||
| 20260507080832 | 13 | 8 | 11.3 | 11.3 | 0.00 | 0.00 | 0.00 | ||
| 20260507080330 | 13 | 21 | 11.3 | 12.9 | 0.00 | 0.00 | 0.00 | ||
| 20260507075830 | 13 | 28 | 11.3 | 11.3 | 0.00 | 0.00 | 0.00 | ||
| 20260507075330 | 13 | 28 | 12.9 | 12.9 | 0.00 | 0.00 | 0.00 | ||
| 20260507074828 | 13 | 8 | 11.3 | 9.7 | 0.00 | 0.00 | 0.00 | ||
| 20260507074328 | 13 | 6 | 12.9 | 12.9 | 0.00 | 0.00 | 0.00 | ||
| 20260507073829 | 13 | 10 | 12.9 | 9.7 | 0.00 | 0.00 | 0.00 | ||
| 20260507073326 | 13 | 1 | 14.5 | 17.7 | 0.00 | 0.00 | 0.00 | ||
| 20260507072827 | 13 | 7 | 16.1 | 12.9 | 0.00 | 0.00 | 0.00 | ||
| 20260507072327 | 13 | 15 | 14.5 | 12.9 | 0.00 | 0.00 | 0.00 | ||
| 20260507071825 | 13 | 347 | 14.5 | 16.1 | 0.00 | 0.00 | 0.00 | ||
| 20260507071325 | 13 | 4 | 16.1 | 17.7 | 0.00 | 0.00 | 0.00 | ||
| 20260507070826 | 14 | 8 | 14.5 | 17.7 | 0.00 | 0.00 | 0.00 | ||
| 20260507070323 | 13 | 13 | 14.5 | 16.1 | 0.00 | 0.00 | 0.00 | ||
| 20260507065824 | 13 | 13 | 12.9 | 9.7 | 0.00 | 0.00 | 0.00 | ||
| 20260507065324 | 13 | 34 | 12.9 | 14.5 | 0.00 | 0.00 | 0.00 | ||
| 20260507064822 | 14 | 25 | 12.9 | 14.5 | 0.00 | 0.00 | 0.00 | ||
| 20260507064322 | 13 | 4 | 12.9 | 14.5 | 0.00 | 0.00 | 0.00 | ||
| 20260507063823 | 14 | 13 | 12.9 | 14.5 | 0.00 | 0.00 | 0.00 | ||
| 20260507063320 | 14 | 18 | 9.7 | 12.9 | 0.00 | 0.00 | 0.00 | ||
| 20260507062821 | 14 | 25 | 11.3 | 12.9 | 0.00 | 0.00 | 0.00 | ||
| 20260507062321 | 14 | 10 | 14.5 | 9.7 | 0.00 | 0.00 | 0.00 | ||
| 20260507061819 | 14 | 13 | 14.5 | 14.5 | 0.00 | 0.00 | 0.00 | ||
| 20260507061320 | 14 | 15 | 11.3 | 12.9 | 0.00 | 0.00 | 0.00 | ||
| 20260507060820 | 14 | 24 | 12.9 | 14.5 | 0.00 | 0.00 | 0.00 | ||
| 20260507060721 | 14 | 17 | 12.9 | 8.0 | 0.00 | 0.00 | 0.00 | ||
| 20260507060318 | 14 | 17 | 12.9 | 8.0 | 0.00 | 0.00 | 0.00 | ||
| 20260507055818 | 14 | 37 | 12.9 | 12.9 | 0.00 | 0.00 | 0.00 |